Time,TemperatureF,DewpointF,PressureIn,WindDirection,WindDirectionDegrees,WindSpeedMPH,WindSpeedGustMPH,Humidity,HourlyPrecipIn,Conditions,Clouds,dailyrainin,SoftwareType,DateUTC
2013-04-25 00:01:00,72.0,31.0,29.78,WSW,245,2.0,6.0,22,0.00,,,0.00,,2013-04-25 07:01:00,
2013-04-25 00:11:00,72.0,32.0,29.79,NW,324,0.0,3.0,23,0.00,,,0.00,,2013-04-25 07:11:00,
2013-04-25 00:21:00,72.0,32.0,29.79,NW,324,0.0,3.0,23,0.00,,,0.00,,2013-04-25 07:21:00,
2013-04-25 00:31:00,71.0,31.0,29.80,North,1,0.0,0.0,23,0.00,,,0.00,,2013-04-25 07:31:00,
2013-04-25 00:41:00,71.0,31.0,29.80,North,1,0.0,0.0,23,0.00,,,0.00,,2013-04-25 07:41:00,
2013-04-25 00:52:00,70.0,32.0,29.79,North,1,0.0,0.0,24,0.00,,,0.00,,2013-04-25 07:52:00,
2013-04-25 01:01:00,70.0,33.0,29.78,North,1,1.0,2.0,25,0.00,,,0.00,,2013-04-25 08:01:00,
2013-04-25 01:11:00,70.0,33.0,29.78,North,1,1.0,2.0,25,0.00,,,0.00,,2013-04-25 08:11:00,
2013-04-25 01:21:00,69.0,32.0,29.77,North,3,0.0,2.0,25,0.00,,,0.00,,2013-04-25 08:21:00,
2013-04-25 01:31:00,70.0,33.0,29.76,NNE,33,0.0,2.0,25,0.00,,,0.00,,2013-04-25 08:31:00,
2013-04-25 01:41:00,70.0,33.0,29.76,NNE,33,0.0,2.0,25,0.00,,,0.00,,2013-04-25 08:41:00,
2013-04-25 01:51:00,69.0,32.0,29.76,NNE,33,0.0,0.0,25,0.00,,,0.00,,2013-04-25 08:51:00,
2013-04-25 02:01:00,68.0,32.0,29.76,NNE,33,0.0,1.0,26,0.00,,,0.00,,2013-04-25 09:01:00,
2013-04-25 02:11:00,68.0,32.0,29.76,NNE,33,0.0,1.0,26,0.00,,,0.00,,2013-04-25 09:11:00,
2013-04-25 02:21:00,67.0,32.0,29.75,NNE,33,0.0,0.0,27,0.00,,,0.00,,2013-04-25 09:21:00,
2013-04-25 02:32:00,65.0,31.0,29.75,NNE,33,0.0,0.0,28,0.00,,,0.00,,2013-04-25 09:32:00,
2013-04-25 02:42:00,65.0,31.0,29.75,NNE,33,0.0,0.0,28,0.00,,,0.00,,2013-04-25 09:42:00,
2013-04-25 02:52:00,65.0,32.0,29.76,NNE,32,0.0,1.0,29,0.00,,,0.00,,2013-04-25 09:52:00,
2013-04-25 03:02:00,66.0,33.0,29.75,NNE,31,0.0,2.0,29,0.00,,,0.00,,2013-04-25 10:02:00,
2013-04-25 03:11:00,66.0,33.0,29.75,NNE,31,0.0,2.0,29,0.00,,,0.00,,2013-04-25 10:11:00,
2013-04-25 03:22:00,65.0,32.0,29.76,NNE,31,0.0,0.0,29,0.00,,,0.00,,2013-04-25 10:22:00,
2013-04-25 03:32:00,65.0,33.0,29.76,NNE,31,0.0,0.0,30,0.00,,,0.00,,2013-04-25 10:32:00,
2013-04-25 03:42:00,65.0,33.0,29.76,NNE,31,0.0,0.0,30,0.00,,,0.00,,2013-04-25 10:42:00,
2013-04-25 03:52:00,65.0,33.0,29.76,NNE,31,0.0,0.0,30,0.00,,,0.00,,2013-04-25 10:52:00,
2013-04-25 04:02:00,64.0,34.0,29.76,NNE,31,0.0,0.0,32,0.00,,,0.00,,2013-04-25 11:02:00,
2013-04-25 04:11:00,64.0,34.0,29.76,NNE,31,0.0,0.0,32,0.00,,,0.00,,2013-04-25 11:11:00,
2013-04-25 04:22:00,64.0,33.0,29.77,NNE,31,0.0,0.0,31,0.00,,,0.00,,2013-04-25 11:22:00,
2013-04-25 04:32:00,64.0,33.0,29.77,NNE,12,0.0,2.0,31,0.00,,,0.00,,2013-04-25 11:32:00,
2013-04-25 04:42:00,64.0,33.0,29.77,NNE,12,0.0,2.0,31,0.00,,,0.00,,2013-04-25 11:42:00,
2013-04-25 04:51:00,66.0,33.0,29.77,NNW,343,1.0,3.0,29,0.00,,,0.00,,2013-04-25 11:51:00,
2013-04-25 05:01:00,67.0,32.0,29.77,NW,316,0.0,3.0,27,0.00,,,0.00,,2013-04-25 12:01:00,
2013-04-25 05:12:00,67.0,32.0,29.77,NW,316,0.0,3.0,27,0.00,,,0.00,,2013-04-25 12:12:00,
2013-04-25 05:21:00,66.0,32.0,29.77,NW,315,0.0,2.0,28,0.00,,,0.00,,2013-04-25 12:21:00,
2013-04-25 05:31:00,67.0,32.0,29.77,NNW,339,0.0,0.0,27,0.00,,,0.00,,2013-04-25 12:31:00,
2013-04-25 05:41:00,67.0,32.0,29.77,NNW,339,0.0,0.0,27,0.00,,,0.00,,2013-04-25 12:41:00,
2013-04-25 05:51:00,65.0,31.0,29.76,NNW,343,0.0,0.0,28,0.00,,,0.00,,2013-04-25 12:51:00,
2013-04-25 06:02:00,63.0,32.0,29.77,NNW,343,0.0,1.0,31,0.00,,,0.00,,2013-04-25 13:02:00,
2013-04-25 06:11:00,63.0,32.0,29.77,NNW,343,0.0,1.0,31,0.00,,,0.00,,2013-04-25 13:11:00,
2013-04-25 06:21:00,62.0,33.0,29.78,NNW,339,0.0,2.0,33,0.00,,,0.00,,2013-04-25 13:21:00,
2013-04-25 06:31:00,63.0,32.0,29.78,NNW,338,1.0,4.0,31,0.00,,,0.00,,2013-04-25 13:31:00,
2013-04-25 06:42:00,63.0,32.0,29.78,NNW,338,1.0,4.0,31,0.00,,,0.00,,2013-04-25 13:42:00,
2013-04-25 06:52:00,66.0,31.0,29.78,WNW,303,2.0,6.0,27,0.00,,,0.00,,2013-04-25 13:52:00,
2013-04-25 07:01:00,69.0,31.0,29.79,WNW,297,3.0,6.0,24,0.00,,,0.00,,2013-04-25 14:01:00,
2013-04-25 07:11:00,69.0,31.0,29.79,WNW,297,3.0,6.0,24,0.00,,,0.00,,2013-04-25 14:11:00,
2013-04-25 07:21:00,71.0,30.0,29.79,WNW,299,2.0,5.0,22,0.00,,,0.00,,2013-04-25 14:21:00,
2013-04-25 07:32:00,72.0,31.0,29.79,West,259,4.0,9.0,22,0.00,,,0.00,,2013-04-25 14:32:00,
2013-04-25 07:41:00,72.0,31.0,29.79,West,259,4.0,9.0,22,0.00,,,0.00,,2013-04-25 14:41:00,
2013-04-25 07:52:00,72.0,31.0,29.80,West,270,4.0,8.0,22,0.00,,,0.00,,2013-04-25 14:52:00,
2013-04-25 08:01:00,74.0,30.0,29.81,NW,317,5.0,10.0,20,0.00,,,0.00,,2013-04-25 15:01:00,
2013-04-25 08:11:00,74.0,30.0,29.81,NW,317,5.0,10.0,20,0.00,,,0.00,,2013-04-25 15:11:00,
2013-04-25 08:21:00,75.0,30.0,29.80,West,265,1.0,10.0,19,0.00,,,0.00,,2013-04-25 15:21:00,
2013-04-25 08:32:00,75.0,30.0,29.80,SW,219,3.0,6.0,19,0.00,,,0.00,,2013-04-25 15:32:00,
2013-04-25 08:42:00,75.0,30.0,29.80,SW,219,3.0,6.0,19,0.00,,,0.00,,2013-04-25 15:42:00,
2013-04-25 08:53:00,78.0,30.0,29.80,SSW,207,4.0,9.0,17,0.00,,,0.00,,2013-04-25 15:53:00,
2013-04-25 09:02:00,78.0,28.0,29.80,SW,221,3.0,9.0,16,0.00,,,0.00,,2013-04-25 16:02:00,
2013-04-25 09:13:00,78.0,28.0,29.80,SW,221,3.0,9.0,16,0.00,,,0.00,,2013-04-25 16:13:00,
2013-04-25 09:24:00,78.0,28.0,29.79,SW,215,3.0,8.0,16,0.00,,,0.00,,2013-04-25 16:24:00,
2013-04-25 09:32:00,79.0,27.0,29.79,WSW,247,4.0,9.0,15,0.00,,,0.00,,2013-04-25 16:32:00,
2013-04-25 09:42:00,79.0,27.0,29.79,WSW,247,4.0,9.0,15,0.00,,,0.00,,2013-04-25 16:42:00,
2013-04-25 09:52:00,79.0,27.0,29.79,WSW,246,2.0,14.0,15,0.00,,,0.00,,2013-04-25 16:52:00,
2013-04-25 10:02:00,80.0,30.0,29.79,South,177,3.0,9.0,16,0.00,,,0.00,,2013-04-25 17:02:00,
2013-04-25 10:11:00,80.0,30.0,29.79,South,177,3.0,9.0,16,0.00,,,0.00,,2013-04-25 17:11:00,
2013-04-25 10:22:00,82.0,30.0,29.79,SSW,202,4.0,12.0,15,0.00,,,0.00,,2013-04-25 17:22:00,
2013-04-25 10:31:00,83.0,29.0,29.80,WSW,238,8.0,19.0,14,0.00,,,0.00,,2013-04-25 17:31:00,
2013-04-25 10:41:00,83.0,29.0,29.80,WSW,238,8.0,19.0,14,0.00,,,0.00,,2013-04-25 17:41:00,
2013-04-25 10:53:00,83.0,29.0,29.79,WNW,286,8.0,18.0,14,0.00,,,0.00,,2013-04-25 17:53:00,
2013-04-25 11:01:00,84.0,26.0,29.79,WSW,258,10.0,21.0,12,0.00,,,0.00,,2013-04-25 18:01:00,
2013-04-25 11:11:00,84.0,26.0,29.79,WSW,258,10.0,21.0,12,0.00,,,0.00,,2013-04-25 18:11:00,
2013-04-25 11:21:00,83.0,29.0,29.79,SSW,211,9.0,17.0,14,0.00,,,0.00,,2013-04-25 18:21:00,
2013-04-25 11:31:00,85.0,29.0,29.78,SW,224,8.0,16.0,13,0.00,,,0.00,,2013-04-25 18:31:00,
2013-04-25 11:42:00,85.0,29.0,29.78,SW,224,8.0,16.0,13,0.00,,,0.00,,2013-04-25 18:42:00,
2013-04-25 11:52:00,84.0,28.0,29.78,WSW,254,11.0,20.0,13,0.00,,,0.00,,2013-04-25 18:52:00,
2013-04-25 12:01:00,84.0,24.0,29.78,SW,235,11.0,22.0,11,0.00,,,0.00,,2013-04-25 19:01:00,
2013-04-25 12:11:00,84.0,24.0,29.78,SW,235,11.0,22.0,11,0.00,,,0.00,,2013-04-25 19:11:00,
2013-04-25 12:21:00,84.0,22.0,29.77,WSW,240,11.0,21.0,10,0.00,,,0.00,,2013-04-25 19:21:00,
2013-04-25 12:31:00,84.0,19.0,29.78,West,270,12.0,22.0,9,0.00,,,0.00,,2013-04-25 19:31:00,
2013-04-25 12:41:00,84.0,19.0,29.78,West,270,12.0,22.0,9,0.00,,,0.00,,2013-04-25 19:41:00,
2013-04-25 12:52:00,84.0,22.0,29.78,SW,236,10.0,23.0,10,0.00,,,0.00,,2013-04-25 19:52:00,
2013-04-25 13:01:00,85.0,22.0,29.77,SSW,198,9.0,19.0,10,0.00,,,0.00,,2013-04-25 20:01:00,
2013-04-25 13:11:00,85.0,22.0,29.77,SSW,198,9.0,19.0,10,0.00,,,0.00,,2013-04-25 20:11:00,
2013-04-25 13:21:00,85.0,22.0,29.77,South,190,9.0,18.0,10,0.00,,,0.00,,2013-04-25 20:21:00,
2013-04-25 13:31:00,84.0,19.0,29.76,WNW,290,12.0,24.0,9,0.00,,,0.00,,2013-04-25 20:31:00,
2013-04-25 13:42:00,84.0,19.0,29.76,WNW,290,12.0,24.0,9,0.00,,,0.00,,2013-04-25 20:42:00,
2013-04-25 13:52:00,84.0,16.0,29.77,West,264,11.0,24.0,8,0.00,,,0.00,,2013-04-25 20:52:00,
2013-04-25 14:01:00,84.0,16.0,29.77,SW,234,12.0,25.0,8,0.00,,,0.00,,2013-04-25 21:01:00,
2013-04-25 14:11:00,84.0,16.0,29.77,SW,234,12.0,25.0,8,0.00,,,0.00,,2013-04-25 21:11:00,
2013-04-25 14:21:00,84.0,19.0,29.77,West,280,12.0,27.0,9,0.00,,,0.00,,2013-04-25 21:21:00,
2013-04-25 14:33:00,84.0,19.0,29.77,West,259,11.0,25.0,9,0.00,,,0.00,,2013-04-25 21:33:00,
2013-04-25 14:42:00,84.0,19.0,29.77,West,259,11.0,25.0,9,0.00,,,0.00,,2013-04-25 21:42:00,
2013-04-25 14:52:00,83.0,18.0,29.77,SW,226,11.0,19.0,9,0.00,,,0.00,,2013-04-25 21:52:00,
2013-04-25 15:02:00,83.0,18.0,29.77,SW,215,13.0,27.0,9,0.00,,,0.00,,2013-04-25 22:02:00,
2013-04-25 15:12:00,83.0,18.0,29.77,SW,215,13.0,27.0,9,0.00,,,0.00,,2013-04-25 22:12:00,
2013-04-25 15:22:00,83.0,18.0,29.76,WSW,238,9.0,27.0,9,0.00,,,0.00,,2013-04-25 22:22:00,
2013-04-25 15:32:00,83.0,25.0,29.75,SW,220,11.0,25.0,12,0.00,,,0.00,,2013-04-25 22:32:00,
2013-04-25 15:52:00,83.0,21.0,29.75,WSW,256,11.0,25.0,10,0.00,,,0.00,,2013-04-25 22:52:00,
2013-04-25 16:02:00,82.0,28.0,29.75,West,280,11.0,26.0,14,0.00,,,0.00,,2013-04-25 23:02:00,
2013-04-25 16:21:00,81.0,27.0,29.75,WNW,282,9.0,26.0,14,0.00,,,0.00,,2013-04-25 23:21:00,
2013-04-25 16:32:00,82.0,28.0,29.75,West,263,9.0,22.0,14,0.00,,,0.00,,2013-04-25 23:32:00,
2013-04-25 16:41:00,82.0,28.0,29.75,West,263,9.0,22.0,14,0.00,,,0.00,,2013-04-25 23:41:00,
2013-04-25 16:52:00,81.0,27.0,29.76,WNW,292,11.0,20.0,14,0.00,,,0.00,,2013-04-25 23:52:00,
2013-04-25 17:01:00,80.0,27.0,29.77,West,278,11.0,27.0,14,0.00,,,0.00,,2013-04-26 00:01:00,
2013-04-25 17:11:00,80.0,27.0,29.77,West,278,11.0,27.0,14,0.00,,,0.00,,2013-04-26 00:11:00,
2013-04-25 17:21:00,80.0,27.0,29.77,WNW,286,10.0,17.0,14,0.00,,,0.00,,2013-04-26 00:21:00,
2013-04-25 17:31:00,78.0,25.0,29.78,West,279,11.0,20.0,14,0.00,,,0.00,,2013-04-26 00:31:00,
2013-04-25 17:41:00,78.0,25.0,29.78,West,279,11.0,20.0,14,0.00,,,0.00,,2013-04-26 00:41:00,
2013-04-25 17:51:00,78.0,28.0,29.78,West,274,10.0,21.0,16,0.00,,,0.00,,2013-04-26 00:51:00,
2013-04-25 18:01:00,77.0,29.0,29.78,WNW,289,10.0,23.0,17,0.00,,,0.00,,2013-04-26 01:01:00,
2013-04-25 18:11:00,77.0,29.0,29.78,WNW,289,10.0,23.0,17,0.00,,,0.00,,2013-04-26 01:11:00,
2013-04-25 18:21:00,76.0,29.0,29.78,WNW,290,10.0,23.0,18,0.00,,,0.00,,2013-04-26 01:21:00,
2013-04-25 18:31:00,75.0,30.0,29.79,WNW,294,10.0,21.0,19,0.00,,,0.00,,2013-04-26 01:31:00,
2013-04-25 18:41:00,75.0,30.0,29.79,WNW,294,10.0,21.0,19,0.00,,,0.00,,2013-04-26 01:41:00,
2013-04-25 18:52:00,74.0,29.0,29.80,NW,307,9.0,20.0,19,0.00,,,0.00,,2013-04-26 01:52:00,
2013-04-25 19:01:00,73.0,28.0,29.80,NNW,334,9.0,21.0,19,0.00,,,0.00,,2013-04-26 02:01:00,
2013-04-25 19:11:00,73.0,28.0,29.80,NNW,334,9.0,21.0,19,0.00,,,0.00,,2013-04-26 02:11:00,
2013-04-25 19:21:00,73.0,28.0,29.81,WNW,286,7.0,15.0,19,0.00,,,0.00,,2013-04-26 02:21:00,
2013-04-25 19:31:00,72.0,26.0,29.82,West,273,7.0,15.0,18,0.00,,,0.00,,2013-04-26 02:31:00,
2013-04-25 19:41:00,72.0,26.0,29.82,West,273,7.0,15.0,18,0.00,,,0.00,,2013-04-26 02:41:00,
2013-04-25 19:51:00,71.0,23.0,29.83,West,276,8.0,15.0,16,0.00,,,0.00,,2013-04-26 02:51:00,
2013-04-25 20:01:00,71.0,23.0,29.83,West,259,7.0,16.0,16,0.00,,,0.00,,2013-04-26 03:01:00,
2013-04-25 20:11:00,71.0,23.0,29.83,West,259,7.0,16.0,16,0.00,,,0.00,,2013-04-26 03:11:00,
2013-04-25 20:21:00,70.0,22.0,29.84,West,274,6.0,13.0,16,0.00,,,0.00,,2013-04-26 03:21:00,
2013-04-25 20:32:00,70.0,22.0,29.85,WSW,257,5.0,13.0,16,0.00,,,0.00,,2013-04-26 03:32:00,
2013-04-25 20:43:00,70.0,22.0,29.85,WSW,257,5.0,13.0,16,0.00,,,0.00,,2013-04-26 03:43:00,
2013-04-25 20:53:00,70.0,23.0,29.85,WSW,249,5.0,9.0,17,0.00,,,0.00,,2013-04-26 03:53:00,
2013-04-25 21:02:00,69.0,22.0,29.86,West,267,3.0,9.0,17,0.00,,,0.00,,2013-04-26 04:02:00,
2013-04-25 21:12:00,69.0,22.0,29.86,West,267,3.0,9.0,17,0.00,,,0.00,,2013-04-26 04:12:00,
2013-04-25 21:22:00,69.0,25.0,29.87,WNW,283,4.0,10.0,19,0.00,,,0.00,,2013-04-26 04:22:00,
2013-04-25 21:32:00,68.0,25.0,29.88,West,273,2.0,6.0,20,0.00,,,0.00,,2013-04-26 04:32:00,
2013-04-25 21:42:00,68.0,25.0,29.88,West,273,2.0,6.0,20,0.00,,,0.00,,2013-04-26 04:42:00,
2013-04-25 21:53:00,66.0,26.0,29.89,WSW,253,0.0,0.0,22,0.00,,,0.00,,2013-04-26 04:53:00,
2013-04-25 22:02:00,65.0,25.0,29.90,South,170,1.0,4.0,22,0.00,,,0.00,,2013-04-26 05:02:00,
2013-04-25 22:12:00,65.0,25.0,29.90,South,170,1.0,4.0,22,0.00,,,0.00,,2013-04-26 05:12:00,
2013-04-25 22:22:00,63.0,25.0,29.90,East,91,0.0,1.0,23,0.00,,,0.00,,2013-04-26 05:22:00,
2013-04-25 22:32:00,63.0,26.0,29.91,East,89,0.0,2.0,24,0.00,,,0.00,,2013-04-26 05:32:00,
2013-04-25 22:41:00,63.0,26.0,29.91,East,89,0.0,2.0,24,0.00,,,0.00,,2013-04-26 05:41:00,
2013-04-25 22:52:00,62.0,25.0,29.91,East,85,0.0,4.0,24,0.00,,,0.00,,2013-04-26 05:52:00,
2013-04-25 23:02:00,61.0,26.0,29.91,East,85,0.0,0.0,26,0.00,,,0.00,,2013-04-26 06:02:00,
2013-04-25 23:11:00,61.0,26.0,29.91,East,85,0.0,0.0,26,0.00,,,0.00,,2013-04-26 06:11:00,
2013-04-25 23:21:00,61.0,26.0,29.92,East,85,0.0,1.0,26,0.00,,,0.00,,2013-04-26 06:21:00,
2013-04-25 23:32:00,60.0,26.0,29.92,East,84,0.0,4.0,27,0.00,,,0.00,,2013-04-26 06:32:00,
2013-04-25 23:41:00,60.0,26.0,29.92,East,84,0.0,4.0,27,0.00,,,0.00,,2013-04-26 06:41:00,
2013-04-25 23:52:00,60.0,26.0,29.92,East,84,0.0,0.0,27,0.00,,,0.00,,2013-04-26 06:52:00,